Time,TemperatureF,DewpointF,PressureIn,WindDirection,WindDirectionDegrees,WindSpeedMPH,WindSpeedGustMPH,Humidity,HourlyPrecipIn,Conditions,Clouds,dailyrainin,SoftwareType,DateUTC
2013-10-18 00:01:00,67.6,63.9,29.23,NW,323,3.5,3.5,88,0.00,CLR,,0.00,WeatherDisplay:10.37,2013-10-18 04:01:00,
2013-10-18 00:02:00,67.6,63.9,29.23,West,275,0.0,0.0,88,0.00,CLR,,0.00,WeatherDisplay:10.37,2013-10-18 04:02:00,
2013-10-18 00:07:00,67.6,63.9,29.23,WSW,250,4.6,4.6,88,0.00,CLR,,0.00,WeatherDisplay:10.37,2013-10-18 04:07:00,
2013-10-18 00:12:00,67.6,64.2,29.23,WSW,248,5.8,0.0,89,0.00,CLR,,0.00,WeatherDisplay:10.37,2013-10-18 04:12:00,
2013-10-18 00:17:00,67.6,64.2,29.23,WSW,251,4.6,4.6,89,0.00,CLR,,0.00,WeatherDisplay:10.37,2013-10-18 04:17:00,
2013-10-18 00:22:00,67.6,64.2,29.23,WSW,250,2.3,2.3,89,0.00,CLR,,0.00,WeatherDisplay:10.37,2013-10-18 04:22:00,
2013-10-18 00:27:00,67.4,64.0,29.23,WNW,292,3.5,0.0,89,0.00,CLR,,0.00,WeatherDisplay:10.37,2013-10-18 04:27:00,
2013-10-18 00:32:00,67.4,64.0,29.23,SW,230,1.1,1.1,89,0.00,CLR,,0.00,WeatherDisplay:10.37,2013-10-18 04:32:00,
2013-10-18 00:37:00,67.3,63.9,29.23,WSW,253,1.1,1.1,89,0.00,CLR,,0.00,WeatherDisplay:10.37,2013-10-18 04:37:00,
2013-10-18 00:42:00,67.1,63.7,29.23,SW,230,2.3,2.3,89,0.00,CLR,,0.00,WeatherDisplay:10.37,2013-10-18 04:42:00,
2013-10-18 00:47:00,67.1,64.1,29.23,SW,230,0.0,0.0,90,0.00,CLR,,0.00,WeatherDisplay:10.37,2013-10-18 04:47:00,
2013-10-18 00:52:00,66.9,63.9,29.23,WSW,248,3.5,3.5,90,0.00,CLR,,0.00,WeatherDisplay:10.37,2013-10-18 04:52:00,
2013-10-18 00:57:00,66.8,64.1,29.23,SW,229,5.8,5.8,91,0.00,CLR,,0.00,WeatherDisplay:10.37,2013-10-18 04:57:00,
2013-10-18 01:02:00,66.8,64.1,29.23,WSW,251,3.5,3.5,91,0.00,CLR,,0.00,WeatherDisplay:10.37,2013-10-18 05:02:00,
2013-10-18 01:07:00,66.6,63.9,29.23,WSW,246,3.5,3.5,91,0.00,CLR,,0.00,WeatherDisplay:10.37,2013-10-18 05:07:00,
2013-10-18 01:12:00,66.4,64.0,29.23,WSW,254,2.3,2.3,92,0.00,CLR,,0.00,WeatherDisplay:10.37,2013-10-18 05:12:00,
2013-10-18 01:17:00,66.3,63.9,29.23,SW,227,2.3,2.3,92,0.00,CLR,,0.00,WeatherDisplay:10.37,2013-10-18 05:17:00,
2013-10-18 01:22:00,66.3,63.9,29.23,SW,229,2.0,2.0,92,0.00,CLR,,0.00,WeatherDisplay:10.37,2013-10-18 05:22:00,
2013-10-18 01:27:00,66.1,63.7,29.23,WSW,241,0.0,0.0,92,0.00,CLR,,0.00,WeatherDisplay:10.37,2013-10-18 05:27:00,
2013-10-18 01:32:00,66.0,63.9,29.23,WSW,241,0.0,0.0,93,0.00,CLR,,0.00,WeatherDisplay:10.37,2013-10-18 05:32:00,
2013-10-18 01:37:00,65.8,63.7,29.23,WSW,241,0.0,0.0,93,0.00,CLR,,0.00,WeatherDisplay:10.37,2013-10-18 05:37:00,
2013-10-18 01:42:00,65.6,63.5,29.23,WSW,241,0.0,0.0,93,0.00,CLR,,0.00,WeatherDisplay:10.37,2013-10-18 05:42:00,
2013-10-18 01:47:00,65.6,63.5,29.23,WSW,241,0.0,0.0,93,0.00,CLR,,0.00,WeatherDisplay:10.37,2013-10-18 05:47:00,
2013-10-18 01:52:00,65.5,63.7,29.23,WSW,241,0.0,0.0,94,0.00,CLR,,0.00,WeatherDisplay:10.37,2013-10-18 05:52:00,
2013-10-18 01:57:00,65.5,63.7,29.24,WSW,241,0.0,0.0,94,0.00,CLR,,0.00,WeatherDisplay:10.37,2013-10-18 05:57:00,
2013-10-18 02:02:00,65.3,63.5,29.24,WSW,241,0.0,0.0,94,0.00,CLR,,0.00,WeatherDisplay:10.37,2013-10-18 06:02:00,
2013-10-18 02:07:00,65.2,63.4,29.24,WSW,241,0.0,0.0,94,0.00,CLR,,0.00,WeatherDisplay:10.37,2013-10-18 06:07:00,
2013-10-18 02:12:00,65.0,63.2,29.24,WSW,241,0.0,0.0,94,0.00,CLR,,0.00,WeatherDisplay:10.37,2013-10-18 06:12:00,
2013-10-18 02:17:00,65.0,63.5,29.24,WSW,241,0.0,0.0,95,0.00,CLR,,0.00,WeatherDisplay:10.37,2013-10-18 06:17:00,
2013-10-18 02:22:00,65.0,63.5,29.24,WSW,241,0.0,0.0,95,0.00,CLR,,0.00,WeatherDisplay:10.37,2013-10-18 06:22:00,
2013-10-18 02:27:00,65.0,63.5,29.24,WSW,241,0.0,0.0,95,0.00,CLR,,0.00,WeatherDisplay:10.37,2013-10-18 06:27:00,
2013-10-18 02:32:00,65.0,63.5,29.24,WSW,241,0.0,0.0,95,0.00,CLR,,0.00,WeatherDisplay:10.37,2013-10-18 06:32:00,
2013-10-18 02:37:00,65.2,63.7,29.24,North,356,8.1,8.1,95,0.00,CLR,,0.00,WeatherDisplay:10.37,2013-10-18 06:37:00,
2013-10-18 02:42:00,64.8,63.3,29.25,NNW,339,4.6,4.6,95,0.00,CLR,,0.00,WeatherDisplay:10.37,2013-10-18 06:42:00,
2013-10-18 02:47:00,64.5,62.7,29.25,North,3,6.9,6.9,94,0.00,CLR,,0.00,WeatherDisplay:10.37,2013-10-18 06:47:00,
2013-10-18 02:52:00,64.3,62.2,29.25,North,359,5.8,0.0,93,0.00,CLR,,0.00,WeatherDisplay:10.37,2013-10-18 06:52:00,
2013-10-18 02:57:00,64.3,61.9,29.25,North,356,4.6,4.6,92,0.00,CLR,,0.00,WeatherDisplay:10.37,2013-10-18 06:57:00,
2013-10-18 03:02:00,64.2,61.5,29.25,North,352,3.5,0.0,91,0.00,CLR,,0.00,WeatherDisplay:10.37,2013-10-18 07:02:00,
2013-10-18 03:07:00,64.2,61.5,29.25,NNW,343,2.3,2.3,91,0.00,CLR,,0.00,WeatherDisplay:10.37,2013-10-18 07:07:00,
2013-10-18 03:12:00,64.0,61.0,29.25,North,6,3.5,3.5,90,0.00,CLR,,0.00,WeatherDisplay:10.37,2013-10-18 07:12:00,
2013-10-18 03:17:00,63.9,60.9,29.25,North,359,0.0,0.0,90,0.00,CLR,,0.00,WeatherDisplay:10.37,2013-10-18 07:17:00,
2013-10-18 03:22:00,63.7,60.7,29.25,NNW,332,3.5,0.0,90,0.00,CLR,,0.00,WeatherDisplay:10.37,2013-10-18 07:22:00,
2013-10-18 03:27:00,63.5,60.2,29.25,NNE,23,3.0,3.0,89,0.00,CLR,,0.00,WeatherDisplay:10.37,2013-10-18 07:27:00,
2013-10-18 03:32:00,63.4,60.4,29.25,North,0,0.0,0.1,90,0.00,CLR,,0.00,WeatherDisplay:10.37,2013-10-18 07:32:00,
2013-10-18 03:37:00,63.2,60.2,29.25,SW,215,0.0,0.0,90,0.00,CLR,,0.00,WeatherDisplay:10.37,2013-10-18 07:37:00,
2013-10-18 03:42:00,63.1,60.1,29.26,North,1,0.0,0.0,90,0.00,CLR,,0.00,WeatherDisplay:10.37,2013-10-18 07:42:00,
2013-10-18 03:47:00,62.7,59.4,29.26,North,353,8.1,8.1,89,0.00,CLR,,0.00,WeatherDisplay:10.37,2013-10-18 07:47:00,
2013-10-18 03:52:00,62.3,58.4,29.26,North,353,4.6,4.9,87,0.00,CLR,,0.00,WeatherDisplay:10.37,2013-10-18 07:52:00,
2013-10-18 03:57:00,61.8,56.9,29.26,NNW,337,5.8,5.8,84,0.00,CLR,,0.00,WeatherDisplay:10.37,2013-10-18 07:57:00,
2013-10-18 04:02:00,61.6,55.7,29.26,ESE,106,5.8,5.8,81,0.00,CLR,,0.00,WeatherDisplay:10.37,2013-10-18 08:02:00,
2013-10-18 04:07:00,61.5,55.3,29.26,North,4,10.4,10.4,80,0.00,CLR,,0.00,WeatherDisplay:10.37,2013-10-18 08:07:00,
2013-10-18 04:12:00,61.5,54.9,29.26,North,356,5.8,5.8,79,0.00,CLR,,0.00,WeatherDisplay:10.37,2013-10-18 08:12:00,
2013-10-18 04:17:00,61.3,54.7,29.26,North,357,4.6,4.6,79,0.00,CLR,,0.00,WeatherDisplay:10.37,2013-10-18 08:17:00,
2013-10-18 04:22:00,61.2,54.6,29.26,North,349,0.0,3.7,79,0.00,CLR,,0.00,WeatherDisplay:10.37,2013-10-18 08:22:00,
2013-10-18 04:27:00,61.0,54.4,29.27,NNW,335,5.8,5.8,79,0.00,CLR,,0.00,WeatherDisplay:10.37,2013-10-18 08:27:00,
2013-10-18 04:32:00,60.9,54.3,29.27,North,11,9.2,9.2,79,0.00,CLR,,0.00,WeatherDisplay:10.37,2013-10-18 08:32:00,
2013-10-18 04:37:00,60.7,54.1,29.27,NNW,329,1.1,3.5,79,0.00,CLR,,0.00,WeatherDisplay:10.37,2013-10-18 08:37:00,
2013-10-18 04:42:00,60.5,53.6,29.27,North,0,5.8,5.8,78,0.00,CLR,,0.00,WeatherDisplay:10.37,2013-10-18 08:42:00,
2013-10-18 04:47:00,60.5,53.6,29.27,NNE,23,6.9,6.9,78,0.00,CLR,,0.00,WeatherDisplay:10.37,2013-10-18 08:47:00,
2013-10-18 04:52:00,60.4,53.2,29.27,ENE,72,3.5,3.5,77,0.00,CLR,,0.00,WeatherDisplay:10.37,2013-10-18 08:52:00,
2013-10-18 04:57:00,60.2,53.0,29.28,NNE,16,3.5,3.5,77,0.00,CLR,,0.00,WeatherDisplay:10.37,2013-10-18 08:57:00,
2013-10-18 05:02:00,60.1,52.9,29.28,North,8,2.3,2.6,77,0.00,CLR,,0.00,WeatherDisplay:10.37,2013-10-18 09:02:00,
2013-10-18 05:07:00,59.9,52.7,29.28,North,0,5.8,5.8,77,0.00,CLR,,0.00,WeatherDisplay:10.37,2013-10-18 09:07:00,
2013-10-18 05:12:00,59.8,52.9,29.28,NNW,328,3.5,0.0,78,0.00,CLR,,0.00,WeatherDisplay:10.37,2013-10-18 09:12:00,
2013-10-18 05:17:00,59.5,52.6,29.28,NNE,24,6.9,6.9,78,0.00,CLR,,0.00,WeatherDisplay:10.37,2013-10-18 09:17:00,
2013-10-18 05:22:00,59.3,52.1,29.28,NNW,342,4.6,4.6,77,0.00,CLR,,0.00,WeatherDisplay:10.37,2013-10-18 09:22:00,
2013-10-18 05:27:00,59.2,52.3,29.29,NNE,31,5.8,5.8,78,0.00,CLR,,0.00,WeatherDisplay:10.37,2013-10-18 09:27:00,
2013-10-18 05:32:00,59.0,52.1,29.29,North,0,3.5,3.5,78,0.00,CLR,,0.00,WeatherDisplay:10.37,2013-10-18 09:32:00,
2013-10-18 05:37:00,58.9,52.1,29.29,NNE,13,2.3,0.0,78,0.00,CLR,,0.00,WeatherDisplay:10.37,2013-10-18 09:37:00,
2013-10-18 05:42:00,58.7,52.2,29.30,North,357,0.0,0.0,79,0.00,CLR,,0.00,WeatherDisplay:10.37,2013-10-18 09:42:00,
2013-10-18 05:47:00,58.4,51.9,29.30,ENE,58,4.6,4.6,79,0.00,CLR,,0.00,WeatherDisplay:10.37,2013-10-18 09:47:00,
2013-10-18 05:52:00,58.0,50.5,29.30,NNW,347,4.6,4.6,76,0.00,CLR,,0.00,WeatherDisplay:10.37,2013-10-18 09:52:00,
2013-10-18 05:57:00,57.8,50.3,29.30,North,0,5.8,5.8,76,0.00,CLR,,0.00,WeatherDisplay:10.37,2013-10-18 09:57:00,
2013-10-18 06:02:00,57.6,49.7,29.30,NW,306,0.0,1.4,75,0.00,CLR,,0.00,WeatherDisplay:10.37,2013-10-18 10:02:00,
2013-10-18 06:07:00,57.5,49.6,29.30,NW,325,0.0,0.2,75,0.00,CLR,,0.00,WeatherDisplay:10.37,2013-10-18 10:07:00,
2013-10-18 06:12:00,57.2,49.3,29.31,North,357,1.1,1.1,75,0.00,CLR,,0.00,WeatherDisplay:10.37,2013-10-18 10:12:00,
2013-10-18 06:17:00,57.0,49.2,29.31,North,0,0.0,2.0,75,0.00,CLR,,0.00,WeatherDisplay:10.37,2013-10-18 10:17:00,
2013-10-18 06:22:00,56.7,48.5,29.31,North,357,1.1,3.0,74,0.00,CLR,,0.00,WeatherDisplay:10.37,2013-10-18 10:22:00,
2013-10-18 06:27:00,56.6,48.0,29.31,North,0,2.0,2.0,73,0.00,CLR,,0.00,WeatherDisplay:10.37,2013-10-18 10:27:00,
2013-10-18 06:32:00,56.5,47.6,29.31,ENE,64,4.6,4.6,72,0.00,CLR,,0.00,WeatherDisplay:10.37,2013-10-18 10:32:00,
2013-10-18 06:37:00,56.3,47.4,29.31,North,359,3.5,3.5,72,0.00,CLR,,0.00,WeatherDisplay:10.37,2013-10-18 10:37:00,
2013-10-18 06:42:00,56.2,47.3,29.32,North,359,0.0,0.0,72,0.00,CLR,,0.00,WeatherDisplay:10.37,2013-10-18 10:42:00,
2013-10-18 06:47:00,56.0,47.1,29.32,NE,52,0.0,0.0,72,0.00,CLR,,0.00,WeatherDisplay:10.37,2013-10-18 10:47:00,
2013-10-18 06:52:00,55.9,47.0,29.32,North,6,0.0,3.0,72,0.00,CLR,,0.00,WeatherDisplay:10.37,2013-10-18 10:52:00,
2013-10-18 06:57:00,55.7,47.2,29.32,North,359,2.3,0.0,73,0.00,CLR,,0.00,WeatherDisplay:10.37,2013-10-18 10:57:00,
2013-10-18 07:02:00,55.4,47.2,29.32,North,0,0.0,0.0,74,0.00,CLR,,0.00,WeatherDisplay:10.37,2013-10-18 11:02:00,
2013-10-18 07:07:00,55.3,46.8,29.32,North,0,0.0,0.0,73,0.00,CLR,,0.00,WeatherDisplay:10.37,2013-10-18 11:07:00,
2013-10-18 07:12:00,55.0,46.9,29.32,North,0,0.0,0.0,74,0.00,CLR,,0.00,WeatherDisplay:10.37,2013-10-18 11:12:00,
2013-10-18 07:17:00,54.8,46.7,29.32,North,0,0.0,0.0,74,0.00,CLR,,0.00,WeatherDisplay:10.37,2013-10-18 11:17:00,
2013-10-18 07:22:00,54.7,46.9,29.32,North,0,0.0,0.0,75,0.00,CLR,,0.00,WeatherDisplay:10.37,2013-10-18 11:22:00,
2013-10-18 07:27:00,54.5,46.7,29.33,North,4,3.5,0.0,75,0.00,CLR,,0.00,WeatherDisplay:10.37,2013-10-18 11:27:00,
2013-10-18 07:32:00,54.4,46.6,29.33,North,4,0.0,0.0,75,0.00,CLR,,0.00,WeatherDisplay:10.37,2013-10-18 11:32:00,
2013-10-18 07:37:00,54.2,46.8,29.33,North,4,0.0,0.0,76,0.00,CLR,,0.00,WeatherDisplay:10.37,2013-10-18 11:37:00,
2013-10-18 07:42:00,54.1,47.0,29.34,North,4,0.0,0.0,77,0.00,CLR,,0.00,WeatherDisplay:10.37,2013-10-18 11:42:00,
2013-10-18 07:47:00,53.9,46.9,29.34,North,359,0.0,0.0,77,0.00,CLR,,0.00,WeatherDisplay:10.37,2013-10-18 11:47:00,
2013-10-18 07:52:00,53.8,46.8,29.34,South,174,0.0,0.0,77,0.00,CLR,,0.00,WeatherDisplay:10.37,2013-10-18 11:52:00,
2013-10-18 07:57:00,53.6,46.9,29.34,North,6,3.5,3.5,78,0.00,CLR,,0.00,WeatherDisplay:10.37,2013-10-18 11:57:00,
2013-10-18 08:02:00,53.6,46.9,29.34,North,0,3.5,3.5,78,0.00,CLR,,0.00,WeatherDisplay:10.37,2013-10-18 12:02:00,
2013-10-18 08:07:00,53.6,46.6,29.34,NE,34,1.1,0.0,77,0.00,CLR,,0.00,WeatherDisplay:10.37,2013-10-18 12:07:00,
2013-10-18 08:12:00,53.8,46.8,29.34,NNW,333,0.0,0.0,77,0.00,CLR,,0.00,WeatherDisplay:10.37,2013-10-18 12:12:00,
2013-10-18 08:17:00,53.9,46.9,29.34,NNW,347,2.3,2.3,77,0.00,CLR,,0.00,WeatherDisplay:10.37,2013-10-18 12:17:00,
2013-10-18 08:22:00,54.1,47.0,29.34,North,7,0.0,0.0,77,0.00,CLR,,0.00,WeatherDisplay:10.37,2013-10-18 12:22:00,
2013-10-18 08:27:00,54.2,47.1,29.35,NE,34,0.0,0.0,77,0.00,CLR,,0.00,WeatherDisplay:10.37,2013-10-18 12:27:00,
2013-10-18 08:32:00,54.4,47.0,29.35,North,6,5.8,5.8,76,0.00,CLR,,0.00,WeatherDisplay:10.37,2013-10-18 12:32:00,
2013-10-18 08:37:00,54.7,46.9,29.35,NNE,13,0.0,0.0,75,0.00,CLR,,0.00,WeatherDisplay:10.37,2013-10-18 12:37:00,
2013-10-18 08:42:00,55.1,47.3,29.36,North,0,5.8,5.8,75,0.00,CLR,,0.00,WeatherDisplay:10.37,2013-10-18 12:42:00,
2013-10-18 08:47:00,55.4,46.9,29.36,North,0,6.9,6.9,73,0.00,CLR,,0.00,WeatherDisplay:10.37,2013-10-18 12:47:00,
2013-10-18 08:52:00,55.7,47.2,29.36,North,0,6.9,6.9,73,0.00,CLR,,0.00,WeatherDisplay:10.37,2013-10-18 12:52:00,
2013-10-18 08:57:00,56.0,46.7,29.36,North,6,5.8,5.8,71,0.00,CLR,,0.00,WeatherDisplay:10.37,2013-10-18 12:57:00,
2013-10-18 09:02:00,56.5,46.8,29.36,NNE,18,3.5,3.5,70,0.00,CLR,,0.00,WeatherDisplay:10.37,2013-10-18 13:02:00,
2013-10-18 09:07:00,56.9,46.8,29.36,NNW,347,5.8,5.8,69,0.00,CLR,,0.00,WeatherDisplay:10.37,2013-10-18 13:07:00,
2013-10-18 09:12:00,57.2,47.1,29.38,North,7,5.8,5.8,69,0.00,CLR,,0.00,WeatherDisplay:10.37,2013-10-18 13:12:00,
2013-10-18 09:17:00,57.5,46.6,29.38,North,4,5.8,5.8,67,0.00,CLR,,0.00,WeatherDisplay:10.37,2013-10-18 13:17:00,
2013-10-18 09:23:00,57.6,46.7,29.38,North,10,3.5,3.5,67,0.00,CLR,,0.00,WeatherDisplay:10.37,2013-10-18 13:23:00,
2013-10-18 09:28:00,58.0,47.1,29.38,NE,44,3.0,3.0,67,0.00,CLR,,0.00,WeatherDisplay:10.37,2013-10-18 13:28:00,
2013-10-18 09:33:00,58.4,47.5,29.38,NE,35,3.0,3.0,67,0.00,CLR,,0.00,WeatherDisplay:10.37,2013-10-18 13:33:00,
2013-10-18 09:38:00,58.6,47.3,29.38,NNE,31,3.5,0.0,66,0.00,CLR,,0.00,WeatherDisplay:10.37,2013-10-18 13:38:00,
2013-10-18 09:43:00,58.9,46.7,29.38,ENE,68,8.1,8.1,64,0.00,CLR,,0.00,WeatherDisplay:10.37,2013-10-18 13:43:00,
2013-10-18 09:48:00,59.0,46.8,29.38,NE,56,2.3,2.3,64,0.00,CLR,,0.00,WeatherDisplay:10.37,2013-10-18 13:48:00,
2013-10-18 09:53:00,59.5,45.6,29.38,North,357,6.9,6.9,60,0.00,CLR,,0.00,WeatherDisplay:10.37,2013-10-18 13:53:00,
2013-10-18 09:58:00,59.6,46.6,29.38,North,8,8.1,8.1,62,0.00,CLR,,0.00,WeatherDisplay:10.37,2013-10-18 13:58:00,
2013-10-18 10:03:00,59.8,46.7,29.38,NNW,347,0.0,0.0,62,0.00,CLR,,0.00,WeatherDisplay:10.37,2013-10-18 14:03:00,
2013-10-18 10:08:00,60.2,47.1,29.38,NW,315,4.6,5.0,62,0.00,CLR,,0.00,WeatherDisplay:10.37,2013-10-18 14:08:00,
2013-10-18 10:13:00,60.7,47.6,29.39,North,354,6.9,6.9,62,0.00,CLR,,0.00,WeatherDisplay:10.37,2013-10-18 14:13:00,
2013-10-18 10:18:00,60.9,45.6,29.39,North,0,6.9,6.9,57,0.00,CLR,,0.00,WeatherDisplay:10.37,2013-10-18 14:18:00,
2013-10-18 10:23:00,60.9,44.6,29.39,North,359,4.6,4.6,55,0.00,CLR,,0.00,WeatherDisplay:10.37,2013-10-18 14:23:00,
2013-10-18 10:28:00,61.0,44.2,29.38,NNE,21,8.1,8.1,54,0.00,CLR,,0.00,WeatherDisplay:10.37,2013-10-18 14:28:00,
2013-10-18 10:33:00,61.3,44.5,29.38,NNW,342,6.9,6.9,54,0.00,CLR,,0.00,WeatherDisplay:10.37,2013-10-18 14:33:00,
2013-10-18 10:38:00,61.3,44.5,29.38,NNE,25,5.8,5.8,54,0.00,CLR,,0.00,WeatherDisplay:10.37,2013-10-18 14:38:00,
2013-10-18 10:43:00,61.6,44.8,29.39,North,353,8.1,8.1,54,0.00,CLR,,0.00,WeatherDisplay:10.37,2013-10-18 14:43:00,
2013-10-18 10:48:00,61.6,44.8,29.39,NE,42,3.0,3.0,54,0.00,CLR,,0.00,WeatherDisplay:10.37,2013-10-18 14:48:00,
2013-10-18 10:53:00,61.8,45.0,29.39,NNW,344,6.0,6.0,54,0.00,CLR,,0.00,WeatherDisplay:10.37,2013-10-18 14:53:00,
2013-10-18 10:58:00,62.0,45.2,29.39,NE,37,5.0,5.0,54,0.00,CLR,,0.00,WeatherDisplay:10.37,2013-10-18 14:58:00,
2013-10-18 11:03:00,61.8,44.0,29.39,North,7,8.1,8.1,52,0.00,CLR,,0.00,WeatherDisplay:10.37,2013-10-18 15:03:00,
2013-10-18 11:08:00,62.0,45.2,29.39,North,357,6.9,6.9,54,0.00,CLR,,0.00,WeatherDisplay:10.37,2013-10-18 15:08:00,
2013-10-18 11:13:00,62.0,44.7,29.39,NNW,329,3.5,3.5,53,0.00,CLR,,0.00,WeatherDisplay:10.37,2013-10-18 15:13:00,
2013-10-18 11:18:00,62.1,44.8,29.39,North,359,6.0,6.0,53,0.00,CLR,,0.00,WeatherDisplay:10.37,2013-10-18 15:18:00,
2013-10-18 11:23:00,62.3,44.9,29.39,ENE,66,6.9,6.9,53,0.00,CLR,,0.00,WeatherDisplay:10.37,2013-10-18 15:23:00,
2013-10-18 11:28:00,62.6,44.7,29.39,NNE,14,4.6,4.6,52,0.00,CLR,,0.00,WeatherDisplay:10.37,2013-10-18 15:28:00,
2013-10-18 11:33:00,62.9,45.5,29.39,ENE,58,6.9,6.9,53,0.00,CLR,,0.00,WeatherDisplay:10.37,2013-10-18 15:33:00,
2013-10-18 11:38:00,62.9,45.5,29.39,NNE,13,4.6,4.6,53,0.00,CLR,,0.00,WeatherDisplay:10.37,2013-10-18 15:38:00,
2013-10-18 11:43:00,63.1,45.2,29.39,North,354,5.8,5.8,52,0.00,CLR,,0.00,WeatherDisplay:10.37,2013-10-18 15:43:00,
2013-10-18 11:48:00,63.2,45.3,29.39,NE,41,3.5,3.5,52,0.00,CLR,,0.00,WeatherDisplay:10.37,2013-10-18 15:48:00,
2013-10-18 11:53:00,63.2,45.3,29.39,NE,41,4.6,4.6,52,0.00,CLR,,0.00,WeatherDisplay:10.37,2013-10-18 15:53:00,
2013-10-18 11:58:00,63.2,46.3,29.39,North,0,3.5,3.5,54,0.00,CLR,,0.00,WeatherDisplay:10.37,2013-10-18 15:58:00,
2013-10-18 12:03:00,63.2,44.8,29.39,North,4,5.8,5.8,51,0.00,CLR,,0.00,WeatherDisplay:10.37,2013-10-18 16:03:00,
2013-10-18 12:08:00,63.2,45.3,29.39,North,354,5.8,5.8,52,0.00,CLR,,0.00,WeatherDisplay:10.37,2013-10-18 16:08:00,
2013-10-18 12:13:00,63.4,45.5,29.38,North,356,0.0,0.0,52,0.00,CLR,,0.00,WeatherDisplay:10.37,2013-10-18 16:13:00,
2013-10-18 12:18:00,63.9,46.4,29.38,NNE,16,3.5,3.5,53,0.00,CLR,,0.00,WeatherDisplay:10.37,2013-10-18 16:18:00,
2013-10-18 12:23:00,63.9,46.9,29.38,North,359,3.5,3.5,54,0.00,CLR,,0.00,WeatherDisplay:10.37,2013-10-18 16:23:00,
2013-10-18 12:28:00,64.0,45.5,29.38,NNE,20,0.0,0.0,51,0.00,CLR,,0.00,WeatherDisplay:10.37,2013-10-18 16:28:00,
2013-10-18 12:33:00,64.2,46.2,29.38,NE,49,0.0,0.0,52,0.00,CLR,,0.00,WeatherDisplay:10.37,2013-10-18 16:33:00,
2013-10-18 12:38:00,64.2,46.7,29.38,NE,51,1.1,0.0,53,0.00,CLR,,0.00,WeatherDisplay:10.37,2013-10-18 16:38:00,
2013-10-18 12:43:00,64.2,46.2,29.38,NNE,16,2.3,2.3,52,0.00,CLR,,0.00,WeatherDisplay:10.37,2013-10-18 16:43:00,
2013-10-18 12:48:00,64.3,46.8,29.38,NNE,18,0.0,0.0,53,0.00,CLR,,0.00,WeatherDisplay:10.37,2013-10-18 16:48:00,
2013-10-18 12:53:00,64.7,47.2,29.38,NNE,18,0.0,0.0,53,0.00,CLR,,0.00,WeatherDisplay:10.37,2013-10-18 16:53:00,
2013-10-18 12:58:00,65.0,46.9,29.37,NNE,17,1.1,1.1,52,0.00,CLR,,0.00,WeatherDisplay:10.37,2013-10-18 16:58:00,
2013-10-18 13:03:00,65.5,46.9,29.37,NNE,17,0.0,0.0,51,0.00,CLR,,0.00,WeatherDisplay:10.37,2013-10-18 17:03:00,
2013-10-18 13:08:00,65.8,47.7,29.37,NNE,17,0.0,0.0,52,0.00,CLR,,0.00,WeatherDisplay:10.37,2013-10-18 17:08:00,
2013-10-18 13:13:00,66.0,46.8,29.36,NNE,17,0.0,0.0,50,0.00,CLR,,0.00,WeatherDisplay:10.37,2013-10-18 17:13:00,
2013-10-18 13:18:00,66.3,47.6,29.36,NNE,14,2.0,2.0,51,0.00,CLR,,0.00,WeatherDisplay:10.37,2013-10-18 17:18:00,
2013-10-18 13:23:00,66.1,46.4,29.36,North,10,0.0,0.0,49,0.00,CLR,,0.00,WeatherDisplay:10.37,2013-10-18 17:23:00,
2013-10-18 13:28:00,66.1,46.9,29.36,North,10,0.0,0.0,50,0.00,CLR,,0.00,WeatherDisplay:10.37,2013-10-18 17:28:00,
2013-10-18 13:33:00,66.0,46.8,29.36,ESE,106,0.0,0.0,50,0.00,CLR,,0.00,WeatherDisplay:10.37,2013-10-18 17:33:00,
2013-10-18 13:35:00,66.0,47.3,29.36,ESE,106,0.0,0.0,51,0.00,CLR,,0.00,WeatherDisplay:10.37,2013-10-18 17:35:00,
2013-10-18 13:40:00,66.1,47.4,29.35,ESE,106,0.0,0.0,51,0.00,CLR,,0.00,WeatherDisplay:10.37,2013-10-18 17:40:00,
2013-10-18 13:45:00,66.4,48.7,29.35,ESE,106,0.0,0.0,53,0.00,CLR,,0.00,WeatherDisplay:10.37,2013-10-18 17:45:00,
2013-10-18 13:50:00,66.8,48.6,29.35,North,1,0.0,0.0,52,0.00,CLR,,0.00,WeatherDisplay:10.37,2013-10-18 17:50:00,
2013-10-18 13:55:00,66.9,47.6,29.34,North,0,0.0,0.0,50,0.00,CLR,,0.00,WeatherDisplay:10.37,2013-10-18 17:55:00,
2013-10-18 14:00:00,66.8,47.6,29.34,North,359,0.0,0.0,50,0.00,CLR,,0.00,WeatherDisplay:10.37,2013-10-18 18:00:00,
2013-10-18 14:05:00,66.8,47.0,29.34,North,0,0.0,0.0,49,0.00,CLR,,0.00,WeatherDisplay:10.37,2013-10-18 18:05:00,
2013-10-18 14:10:00,66.9,48.2,29.34,North,0,0.0,0.0,51,0.00,CLR,,0.00,WeatherDisplay:10.37,2013-10-18 18:10:00,
2013-10-18 14:15:00,67.1,48.9,29.34,North,0,6.0,6.0,52,0.00,CLR,,0.00,WeatherDisplay:10.37,2013-10-18 18:15:00,
2013-10-18 14:20:00,66.9,47.6,29.34,North,3,4.6,4.6,50,0.00,CLR,,0.00,WeatherDisplay:10.37,2013-10-18 18:20:00,
2013-10-18 14:25:00,66.9,46.6,29.34,North,357,3.5,3.5,48,0.00,CLR,,0.00,WeatherDisplay:10.37,2013-10-18 18:25:00,
2013-10-18 14:30:00,66.8,48.1,29.34,North,357,0.0,0.0,51,0.00,CLR,,0.00,WeatherDisplay:10.37,2013-10-18 18:30:00,
2013-10-18 14:35:00,66.8,47.0,29.34,North,359,0.0,0.0,49,0.00,CLR,,0.00,WeatherDisplay:10.37,2013-10-18 18:35:00,
2013-10-18 14:40:00,67.1,48.4,29.33,North,359,0.0,0.0,51,0.00,CLR,,0.00,WeatherDisplay:10.37,2013-10-18 18:40:00,
2013-10-18 14:45:00,67.3,47.5,29.33,North,359,0.0,0.0,49,0.00,CLR,,0.00,WeatherDisplay:10.37,2013-10-18 18:45:00,
2013-10-18 14:50:00,67.4,49.2,29.33,North,357,0.0,0.0,52,0.00,CLR,,0.00,WeatherDisplay:10.37,2013-10-18 18:50:00,
2013-10-18 14:55:00,67.4,47.6,29.33,WSW,254,0.0,0.0,49,0.00,CLR,,0.00,WeatherDisplay:10.37,2013-10-18 18:55:00,
2013-10-18 15:00:00,67.8,48.5,29.33,WSW,256,0.0,0.0,50,0.00,CLR,,0.00,WeatherDisplay:10.37,2013-10-18 19:00:00,
2013-10-18 15:05:00,68.1,49.3,29.33,WSW,256,0.0,0.0,51,0.00,CLR,,0.00,WeatherDisplay:10.37,2013-10-18 19:05:00,
2013-10-18 15:10:00,67.6,48.8,29.33,SE,145,0.0,0.0,51,0.00,CLR,,0.00,WeatherDisplay:10.37,2013-10-18 19:10:00,
2013-10-18 15:15:00,67.6,50.4,29.33,SE,145,0.0,0.0,54,0.00,CLR,,0.00,WeatherDisplay:10.37,2013-10-18 19:15:00,
2013-10-18 15:20:00,67.6,50.4,29.33,SE,145,0.0,0.0,54,0.00,CLR,,0.00,WeatherDisplay:10.37,2013-10-18 19:20:00,
2013-10-18 15:25:00,67.1,48.9,29.33,SE,145,0.0,0.0,52,0.00,CLR,,0.00,WeatherDisplay:10.37,2013-10-18 19:25:00,
2013-10-18 15:30:00,67.1,48.4,29.33,SE,145,0.0,0.0,51,0.00,CLR,,0.00,WeatherDisplay:10.37,2013-10-18 19:30:00,
2013-10-18 15:35:00,66.9,49.2,29.33,SE,145,0.0,0.0,53,0.00,CLR,,0.00,WeatherDisplay:10.37,2013-10-18 19:35:00,
2013-10-18 15:40:00,66.9,50.2,29.33,SE,145,0.0,0.0,55,0.00,CLR,,0.00,WeatherDisplay:10.37,2013-10-18 19:40:00,
2013-10-18 15:45:00,67.1,48.4,29.33,SE,145,0.0,0.0,51,0.00,CLR,,0.00,WeatherDisplay:10.37,2013-10-18 19:45:00,
2013-10-18 15:50:00,67.4,51.2,29.33,SE,145,0.0,0.0,56,0.00,CLR,,0.00,WeatherDisplay:10.37,2013-10-18 19:50:00,
2013-10-18 15:55:00,67.6,50.4,29.33,WSW,237,2.3,2.3,54,0.00,CLR,,0.00,WeatherDisplay:10.37,2013-10-18 19:55:00,
2013-10-18 16:00:00,67.6,51.3,29.33,WSW,237,0.0,0.0,56,0.00,CLR,,0.00,WeatherDisplay:10.37,2013-10-18 20:00:00,
2013-10-18 16:05:00,67.6,51.3,29.33,WSW,237,0.0,0.0,56,0.00,CLR,,0.00,WeatherDisplay:10.37,2013-10-18 20:05:00,
2013-10-18 16:10:00,67.4,51.2,29.33,SW,223,0.0,0.0,56,0.00,CLR,,0.00,WeatherDisplay:10.37,2013-10-18 20:10:00,
2013-10-18 16:15:00,67.4,51.2,29.33,SW,223,0.0,0.0,56,0.00,CLR,,0.00,WeatherDisplay:10.37,2013-10-18 20:15:00,
2013-10-18 16:20:00,67.6,51.8,29.33,SW,223,0.0,0.0,57,0.00,CLR,,0.00,WeatherDisplay:10.37,2013-10-18 20:20:00,
2013-10-18 16:25:00,67.4,51.6,29.32,SW,223,0.0,0.0,57,0.00,CLR,,0.00,WeatherDisplay:10.37,2013-10-18 20:25:00,
2013-10-18 16:30:00,67.4,51.2,29.32,SW,223,0.0,0.0,56,0.00,CLR,,0.00,WeatherDisplay:10.37,2013-10-18 20:30:00,
2013-10-18 16:35:00,67.6,52.3,29.32,SW,223,0.0,0.0,58,0.00,CLR,,0.00,WeatherDisplay:10.37,2013-10-18 20:35:00,
2013-10-18 16:40:00,67.6,52.3,29.32,SSW,205,0.0,0.0,58,0.00,CLR,,0.00,WeatherDisplay:10.37,2013-10-18 20:40:00,
2013-10-18 16:45:00,67.6,51.8,29.32,SSE,155,0.0,0.0,57,0.00,CLR,,0.00,WeatherDisplay:10.37,2013-10-18 20:45:00,
2013-10-18 16:50:00,67.6,51.3,29.32,SSE,154,0.0,0.0,56,0.00,CLR,,0.00,WeatherDisplay:10.37,2013-10-18 20:50:00,
2013-10-18 16:55:00,67.4,51.2,29.32,SSE,154,0.0,0.1,56,0.00,CLR,,0.00,WeatherDisplay:10.37,2013-10-18 20:55:00,
2013-10-18 17:00:00,67.3,51.5,29.32,SSE,154,0.0,0.0,57,0.00,CLR,,0.00,WeatherDisplay:10.37,2013-10-18 21:00:00,
2013-10-18 17:05:00,67.4,52.6,29.32,SSE,154,0.0,0.0,59,0.00,CLR,,0.00,WeatherDisplay:10.37,2013-10-18 21:05:00,
2013-10-18 17:10:00,67.1,52.7,29.32,SSE,154,0.0,0.0,60,0.00,CLR,,0.00,WeatherDisplay:10.37,2013-10-18 21:10:00,
2013-10-18 17:15:00,67.1,54.5,29.32,SSE,154,0.0,0.0,64,0.00,CLR,,0.00,WeatherDisplay:10.37,2013-10-18 21:15:00,
2013-10-18 17:20:00,67.1,54.5,29.32,SSE,154,0.0,0.0,64,0.00,CLR,,0.00,WeatherDisplay:10.37,2013-10-18 21:20:00,
2013-10-18 17:25:00,67.1,53.2,29.32,SSE,154,0.0,0.0,61,0.00,CLR,,0.00,WeatherDisplay:10.37,2013-10-18 21:25:00,
2013-10-18 17:30:00,67.1,54.9,29.32,SSE,154,0.0,0.0,65,0.00,CLR,,0.00,WeatherDisplay:10.37,2013-10-18 21:30:00,
2013-10-18 17:35:00,67.1,55.4,29.32,SSE,154,0.0,0.0,66,0.00,CLR,,0.00,WeatherDisplay:10.37,2013-10-18 21:35:00,
2013-10-18 17:40:00,67.1,55.8,29.33,SSE,154,0.0,0.0,67,0.00,CLR,,0.00,WeatherDisplay:10.37,2013-10-18 21:40:00,
2013-10-18 17:45:00,66.8,54.2,29.33,SSE,154,0.0,0.0,64,0.00,CLR,,0.00,WeatherDisplay:10.37,2013-10-18 21:45:00,
2013-10-18 17:50:00,66.1,54.0,29.33,SSE,154,0.0,0.0,65,0.00,CLR,,0.00,WeatherDisplay:10.37,2013-10-18 21:50:00,
2013-10-18 17:55:00,65.8,54.1,29.32,SSE,154,0.0,0.0,66,0.00,CLR,,0.00,WeatherDisplay:10.37,2013-10-18 21:55:00,
2013-10-18 18:00:00,65.5,55.5,29.32,SSE,154,0.0,0.0,70,0.00,CLR,,0.00,WeatherDisplay:10.37,2013-10-18 22:00:00,
2013-10-18 18:05:00,65.0,54.6,29.32,SSE,154,0.0,0.0,69,0.00,CLR,,0.00,WeatherDisplay:10.37,2013-10-18 22:05:00,
2013-10-18 18:10:00,64.5,54.9,29.33,SSE,154,0.0,0.0,71,0.00,CLR,,0.00,WeatherDisplay:10.37,2013-10-18 22:10:00,
2013-10-18 18:15:00,64.2,55.4,29.33,SSE,154,0.0,0.0,73,0.00,CLR,,0.00,WeatherDisplay:10.37,2013-10-18 22:15:00,
2013-10-18 18:20:00,63.7,55.3,29.33,SSE,154,0.0,0.0,74,0.00,CLR,,0.00,WeatherDisplay:10.37,2013-10-18 22:20:00,
2013-10-18 18:25:00,63.5,55.4,29.33,SSE,154,0.0,0.0,75,0.00,CLR,,0.00,WeatherDisplay:10.37,2013-10-18 22:25:00,
2013-10-18 18:30:00,63.2,55.1,29.33,SSE,154,0.0,0.0,75,0.00,CLR,,0.00,WeatherDisplay:10.37,2013-10-18 22:30:00,
2013-10-18 18:35:00,62.9,54.1,29.33,SSE,154,0.0,0.0,73,0.00,CLR,,0.00,WeatherDisplay:10.37,2013-10-18 22:35:00,
2013-10-18 18:40:00,62.6,54.2,29.32,SSE,154,0.0,0.0,74,0.00,CLR,,0.00,WeatherDisplay:10.37,2013-10-18 22:40:00,
2013-10-18 18:45:00,62.6,54.6,29.32,SSE,154,0.0,0.0,75,0.00,CLR,,0.00,WeatherDisplay:10.37,2013-10-18 22:45:00,
2013-10-18 18:50:00,62.3,54.6,29.32,SSE,154,0.0,0.0,76,0.00,CLR,,0.00,WeatherDisplay:10.37,2013-10-18 22:50:00,
2013-10-18 18:55:00,62.0,54.3,29.33,SSE,154,0.0,0.0,76,0.00,CLR,,0.00,WeatherDisplay:10.37,2013-10-18 22:55:00,
2013-10-18 19:01:00,61.5,54.2,29.33,SSE,154,0.0,0.0,77,0.00,CLR,,0.00,WeatherDisplay:10.37,2013-10-18 23:01:00,
2013-10-18 19:06:00,61.2,53.9,29.33,SSE,154,0.0,0.0,77,0.00,CLR,,0.00,WeatherDisplay:10.37,2013-10-18 23:06:00,
2013-10-18 19:11:00,60.9,54.0,29.33,SSE,154,0.0,0.0,78,0.00,CLR,,0.00,WeatherDisplay:10.37,2013-10-18 23:11:00,
2013-10-18 19:16:00,60.4,53.9,29.33,SSE,154,0.0,0.0,79,0.00,CLR,,0.00,WeatherDisplay:10.37,2013-10-18 23:16:00,
2013-10-18 19:21:00,60.2,53.7,29.33,SSE,154,0.0,0.0,79,0.00,CLR,,0.00,WeatherDisplay:10.37,2013-10-18 23:21:00,
2013-10-18 19:26:00,59.9,53.7,29.33,SSE,154,0.0,0.0,80,0.00,CLR,,0.00,WeatherDisplay:10.37,2013-10-18 23:26:00,
2013-10-18 19:31:00,59.8,54.3,29.33,SSE,154,0.0,0.0,82,0.00,CLR,,0.00,WeatherDisplay:10.37,2013-10-18 23:31:00,
2013-10-18 19:36:00,59.5,54.0,29.33,SSE,154,0.0,0.0,82,0.00,CLR,,0.00,WeatherDisplay:10.37,2013-10-18 23:36:00,
2013-10-18 19:41:00,59.0,54.2,29.33,SSE,154,0.0,0.0,84,0.00,CLR,,0.00,WeatherDisplay:10.37,2013-10-18 23:41:00,
2013-10-18 19:46:00,58.9,54.1,29.33,SSE,154,0.0,0.0,84,0.00,CLR,,0.00,WeatherDisplay:10.37,2013-10-18 23:46:00,
2013-10-18 19:51:00,58.7,53.9,29.33,SSE,154,0.0,0.0,84,0.00,CLR,,0.00,WeatherDisplay:10.37,2013-10-18 23:51:00,
2013-10-18 19:56:00,58.6,53.8,29.34,SSE,154,0.0,0.0,84,0.00,CLR,,0.00,WeatherDisplay:10.37,2013-10-18 23:56:00,
2013-10-18 20:01:00,58.6,54.1,29.34,SSE,154,0.0,0.0,85,0.00,CLR,,0.00,WeatherDisplay:10.37,2013-10-19 00:01:00,
2013-10-18 20:06:00,58.4,54.2,29.34,SSE,154,0.0,0.0,86,0.00,CLR,,0.00,WeatherDisplay:10.37,2013-10-19 00:06:00,
2013-10-18 20:11:00,58.3,54.1,29.34,SSE,154,0.0,0.0,86,0.00,CLR,,0.00,WeatherDisplay:10.37,2013-10-19 00:11:00,
2013-10-18 20:16:00,58.1,54.2,29.34,SSE,154,0.0,0.0,87,0.00,CLR,,0.00,WeatherDisplay:10.37,2013-10-19 00:16:00,
2013-10-18 20:21:00,58.1,54.2,29.34,SSE,154,0.0,0.0,87,0.00,CLR,,0.00,WeatherDisplay:10.37,2013-10-19 00:21:00,
2013-10-18 20:26:00,58.1,54.2,29.34,SSE,154,0.0,0.0,87,0.00,CLR,,0.00,WeatherDisplay:10.37,2013-10-19 00:26:00,
2013-10-18 20:31:00,58.3,54.4,29.34,SSE,154,0.0,0.0,87,0.00,CLR,,0.00,WeatherDisplay:10.37,2013-10-19 00:31:00,
2013-10-18 20:36:00,58.3,54.1,29.34,SSE,154,0.0,0.0,86,0.00,CLR,,0.00,WeatherDisplay:10.37,2013-10-19 00:36:00,
2013-10-18 20:41:00,58.4,54.5,29.35,SSE,154,0.0,0.0,87,0.00,CLR,,0.00,WeatherDisplay:10.37,2013-10-19 00:41:00,
2013-10-18 20:46:00,58.4,54.2,29.35,SSE,154,0.0,0.0,86,0.00,CLR,,0.00,WeatherDisplay:10.37,2013-10-19 00:46:00,
2013-10-18 20:51:00,58.7,54.8,29.35,SSE,154,0.0,0.0,87,0.00,CLR,,0.00,WeatherDisplay:10.37,2013-10-19 00:51:00,
2013-10-18 20:56:00,58.7,54.5,29.34,SSE,154,0.0,0.0,86,0.00,CLR,,0.00,WeatherDisplay:10.37,2013-10-19 00:56:00,
2013-10-18 21:01:00,58.7,54.5,29.34,SSE,154,0.0,0.0,86,0.00,CLR,,0.00,WeatherDisplay:10.37,2013-10-19 01:01:00,
2013-10-18 21:06:00,58.7,54.5,29.34,SSE,154,0.0,0.0,86,0.00,CLR,,0.00,WeatherDisplay:10.37,2013-10-19 01:06:00,
2013-10-18 21:11:00,58.7,54.2,29.34,SSE,154,0.0,0.0,85,0.00,CLR,,0.00,WeatherDisplay:10.37,2013-10-19 01:11:00,
2013-10-18 21:16:00,58.9,54.4,29.34,SSE,154,0.0,0.0,85,0.00,CLR,,0.00,WeatherDisplay:10.37,2013-10-19 01:16:00,
2013-10-18 21:21:00,58.9,54.7,29.34,SSE,154,0.0,0.0,86,0.00,CLR,,0.00,WeatherDisplay:10.37,2013-10-19 01:21:00,
2013-10-18 21:26:00,59.0,54.8,29.34,SSE,154,0.0,0.0,86,0.00,CLR,,0.00,WeatherDisplay:10.37,2013-10-19 01:26:00,
2013-10-18 21:31:00,59.2,55.0,29.34,SSE,154,0.0,0.0,86,0.00,CLR,,0.00,WeatherDisplay:10.37,2013-10-19 01:31:00,
2013-10-18 21:36:00,59.2,55.0,29.34,SSE,154,0.0,0.0,86,0.00,CLR,,0.00,WeatherDisplay:10.37,2013-10-19 01:36:00,
2013-10-18 21:41:00,59.2,54.7,29.35,SSE,154,0.0,0.0,85,0.00,CLR,,0.00,WeatherDisplay:10.37,2013-10-19 01:41:00,
2013-10-18 21:46:00,59.2,54.7,29.35,SSE,154,0.0,0.0,85,0.00,CLR,,0.00,WeatherDisplay:10.37,2013-10-19 01:46:00,
2013-10-18 21:51:00,59.3,55.1,29.35,SSE,154,0.0,0.0,86,0.00,CLR,,0.00,WeatherDisplay:10.37,2013-10-19 01:51:00,
2013-10-18 21:56:00,59.3,54.8,29.35,SSE,154,0.0,0.0,85,0.00,CLR,,0.00,WeatherDisplay:10.37,2013-10-19 01:56:00,
2013-10-18 22:01:00,59.5,55.0,29.35,SSE,154,0.0,0.0,85,0.00,CLR,,0.00,WeatherDisplay:10.37,2013-10-19 02:01:00,
2013-10-18 22:06:00,59.3,54.8,29.35,SSE,154,0.0,0.0,85,0.00,CLR,,0.00,WeatherDisplay:10.37,2013-10-19 02:06:00,
2013-10-18 22:11:00,59.5,55.0,29.35,SSE,154,0.0,0.0,85,0.00,CLR,,0.00,WeatherDisplay:10.37,2013-10-19 02:11:00,
2013-10-18 22:16:00,59.5,55.0,29.35,SSE,154,0.0,0.0,85,0.00,CLR,,0.00,WeatherDisplay:10.37,2013-10-19 02:16:00,
2013-10-18 22:21:00,59.8,55.0,29.35,SSE,154,0.0,0.0,84,0.00,CLR,,0.00,WeatherDisplay:10.37,2013-10-19 02:21:00,
2013-10-18 22:26:00,59.9,55.4,29.35,SSE,155,0.0,0.0,85,0.00,CLR,,0.00,WeatherDisplay:10.37,2013-10-19 02:26:00,
2013-10-18 22:31:00,59.9,55.4,29.35,SSE,154,0.0,0.0,85,0.00,CLR,,0.00,WeatherDisplay:10.37,2013-10-19 02:31:00,
2013-10-18 22:36:00,59.9,55.4,29.35,SSE,154,0.0,0.0,85,0.00,CLR,,0.00,WeatherDisplay:10.37,2013-10-19 02:36:00,
2013-10-18 22:41:00,59.9,55.1,29.35,SSE,154,0.0,0.0,84,0.00,CLR,,0.00,WeatherDisplay:10.37,2013-10-19 02:41:00,
2013-10-18 22:46:00,59.9,54.7,29.35,SSE,154,0.0,0.0,83,0.00,CLR,,0.00,WeatherDisplay:10.37,2013-10-19 02:46:00,
2013-10-18 22:51:00,59.8,54.3,29.35,SSE,154,0.0,0.0,82,0.00,CLR,,0.00,WeatherDisplay:10.37,2013-10-19 02:51:00,
2013-10-18 22:56:00,59.8,54.0,29.34,SSE,154,0.0,0.0,81,0.00,CLR,,0.00,WeatherDisplay:10.37,2013-10-19 02:56:00,
2013-10-18 23:01:00,59.8,54.3,29.34,SSE,154,0.0,0.0,82,0.00,CLR,,0.00,WeatherDisplay:10.37,2013-10-19 03:01:00,
2013-10-18 23:06:00,59.8,54.3,29.34,SSE,154,0.0,0.0,82,0.00,CLR,,0.00,WeatherDisplay:10.37,2013-10-19 03:06:00,
2013-10-18 23:11:00,59.8,54.6,29.34,SSE,154,0.0,0.0,83,0.00,CLR,,0.00,WeatherDisplay:10.37,2013-10-19 03:11:00,
2013-10-18 23:16:00,59.6,54.1,29.34,SSE,154,0.0,0.0,82,0.00,CLR,,0.00,WeatherDisplay:10.37,2013-10-19 03:16:00,
2013-10-18 23:21:00,59.6,54.4,29.34,SSE,154,0.0,0.0,83,0.00,CLR,,0.00,WeatherDisplay:10.37,2013-10-19 03:21:00,
2013-10-18 23:26:00,59.8,54.6,29.34,SSE,154,0.0,0.0,83,0.00,CLR,,0.00,WeatherDisplay:10.37,2013-10-19 03:26:00,
2013-10-18 23:31:00,59.8,54.6,29.34,SSE,154,0.0,0.0,83,0.00,CLR,,0.00,WeatherDisplay:10.37,2013-10-19 03:31:00,
2013-10-18 23:36:00,59.9,55.1,29.34,SSE,154,0.0,0.0,84,0.00,CLR,,0.00,WeatherDisplay:10.37,2013-10-19 03:36:00,
2013-10-18 23:41:00,59.9,55.4,29.34,SSE,154,0.0,0.0,85,0.00,CLR,,0.00,WeatherDisplay:10.37,2013-10-19 03:41:00,
2013-10-18 23:46:00,59.8,54.6,29.34,SSE,154,0.0,0.0,83,0.00,CLR,,0.00,WeatherDisplay:10.37,2013-10-19 03:46:00,
2013-10-18 23:51:00,59.9,55.1,29.34,SSE,154,0.0,0.0,84,0.00,CLR,,0.00,WeatherDisplay:10.37,2013-10-19 03:51:00,
2013-10-18 23:56:00,59.8,55.0,29.33,SSE,154,0.0,0.0,84,0.00,CLR,,0.00,WeatherDisplay:10.37,2013-10-19 03:56:00,